Tracking 26303 objects as of 1-Dec-2022
HD Live streaming from Space Station
objects crossing your sky now

COSMOS 1375 DEB

Track COSMOS 1375 DEB now!
10-day predictions


NORAD ID: 16375
Int'l Code: 1982-055P
Perigee: 957.3 km
Apogee: 983.5 km
Inclination: 65.8 °
Period: 104.3 minutes
Semi major axis: 7341 km
RCS: 0.132 m2 (medium)
Launch date: June 6, 1982
Source: Commonwealth of Independent States (former USSR) (CIS)
Launch site: PLESETSK MISSILE AND SPACE COMPLEX (PKMTR)

Note: This is SATELLITE DEBRIS
aabbcc
Your satellite tracking list
Your tracking list is empty




NASA's NSSDC Master Catalog

Two Line Element Set (TLE):
1 16375U 82055P   22335.37839147 -.00000019  00000-0  59877-4 0  9990
2 16375  65.8340  95.8204 0017791  55.4634 338.3830 13.80177097869453
Source of the keplerian elements: AFSPC